[[{"header":{"parameterUnit":"m.s-1","parameterCategory":1,"la1":30.2991,"la2":30.254,"lo1":-89.0895,"lo2":-89.0444,"dy":0.0017,"dx":0.0017,"nx":28,"ny":28,"refTime":"2023-08-03T21:00:00:Z","depth":0,"parameterNumber":2,"parameterNumberName":"U-component_of_WINDS"},"data":[0,0,0,0,0,0,0,0,0,0,0,0,0,0,0,0,0,0,0,0,0,0,0,0,0,0,0,0,0,0,0,0,0,0,0,0,0,0,0,0,0,0,0,0,0,0,0,0,0,0,0,0,0,0,0,0,0,0,3.5445,3.5446,0,3.5526,3.5527,3.5528,3.5484,3.5482,3.548,3.5477,3.5559,3.5563,3.5567,0,0,0,0,0,0,0,0,0,0,0,0,0,3.5247,3.5251,3.5445,3.5446,3.5447,3.5526,3.5527,3.5528,3.5484,3.5482,3.5479,3.5476,3.5558,3.5563,3.5568,0,0,0,0,0,0,0,0,0,0,0,0,0,3.5331,3.5252,3.5445,3.5435,3.5434,3.5526,3.5527,3.5529,3.5485,3.5482,3.5478,3.5475,3.5556,3.5562,3.5569,3.5674,0,0,3.5588,3.5591,0,0,0,0,0,0,0,0,3.5327,3.5339,3.5435,3.5435,3.5435,3.5492,3.5488,3.5578,3.5486,3.5466,3.5477,3.5474,3.5539,3.5547,3.5569,3.5678,3.5682,3.5589,3.5592,3.5595,3.5597,0,0,0,0,0,0,0,3.5321,3.5335,3.5477,3.5436,3.5437,3.5425,3.5433,3.5504,3.552,3.5467,3.5464,3.5474,3.5539,3.5563,3.5571,3.5683,3.5588,3.5594,3.5598,3.56,3.5878,3.5881,0,0,0,0,0,0,3.5316,3.533,3.5474,3.548,3.5372,3.5431,3.544,3.5477,3.5519,3.5522,3.5477,3.5472,3.5554,3.5564,3.5574,3.5697,3.5595,3.5601,3.5605,3.5874,3.5878,3.5882,0,0,0,0,0,0,3.5312,3.5329,3.5471,3.5404,3.5421,3.5438,3.548,3.548,3.5505,3.5527,3.5529,3.55,3.5552,3.5565,3.5649,3.5699,3.5604,3.561,3.587,3.5875,3.588,3.5946,0,0,0,0,0,0,3.5307,3.5328,3.537,3.5405,3.5425,3.5546,3.5483,3.5484,3.5516,3.551,3.5548,3.5552,3.555,3.5639,3.5655,3.5706,3.5615,3.5865,3.5872,3.5879,3.5939,3.5953,3.5964,0,0,0,0,0,3.53,3.5386,3.5372,3.539,3.5477,3.5549,3.556,3.5558,3.552,3.5561,3.5575,3.555,3.5692,3.5648,3.5666,3.5719,3.5862,3.587,3.5878,3.5934,3.595,3.5964,0,0,0,0,0,0,3.5356,3.539,3.5376,3.5476,3.551,3.5542,3.5593,3.5576,3.5621,3.5613,3.5607,3.5616,3.5703,3.572,3.5671,3.5821,3.5771,3.5783,3.5807,3.5823,3.5835,3.5828,3.562,0,0,0,0,0,3.538,3.5436,3.5463,3.5549,3.5567,3.5577,3.5609,3.5603,3.5638,3.5652,3.5672,3.5706,3.5757,3.5791,3.5841,3.5942,3.5948,3.5987,3.6,3.601,3.6019,3.607,3.6087,3.5908,3.5908,3.5908,0,0,3.543,3.5456,3.5492,3.5561,3.5586,3.5643,3.559,3.5653,3.5694,3.5662,3.5741,3.5757,3.5794,3.5886,3.5928,3.5903,3.607,3.602,3.6028,3.6032,3.608,3.6097,3.6112,3.5914,3.5913,3.5912,0,0,3.5549,3.5577,3.5649,3.5675,3.5715,3.572,3.5738,3.5772,3.5781,3.5861,3.5836,3.5885,3.5975,3.6001,3.6026,3.6153,3.6131,3.6169,3.6234,3.6283,3.6297,3.631,3.6351,3.6366,3.6179,3.6179,3.6179,0,3.5607,3.5692,3.5688,3.5752,3.5782,3.5754,3.5826,3.5852,3.5905,3.5925,3.5897,3.6007,3.603,3.6126,3.6156,3.6179,3.6196,3.6164,3.6296,3.6308,3.6319,3.6359,3.6375,3.6183,3.6183,3.6182,3.6182,0,3.5758,3.5818,3.5871,3.5922,3.5958,3.6026,3.603,3.6067,3.6058,3.6066,3.6146,3.6173,3.6225,3.6248,3.624,3.6341,3.6324,3.6296,3.6245,3.6341,3.6377,3.6393,3.6189,3.6188,3.6186,3.6185,0,0,3.5916,3.5962,3.5982,3.6003,3.6043,3.6088,3.6153,3.6204,3.6233,3.6271,3.6323,3.6399,3.6372,3.64,3.6395,3.6439,3.6533,3.6405,3.6406,3.6425,3.6642,3.666,3.6678,3.6519,3.6522,3.6525,3.6637,0,3.6035,3.615,3.6146,3.6252,3.6304,3.6278,3.6334,3.6364,3.6373,3.6418,3.6428,3.6479,3.6442,3.6459,3.6501,3.6513,3.6576,3.6505,3.6565,3.6567,3.6554,3.6698,3.6719,3.6823,3.6652,3.6654,3.6656,0,3.619,3.6231,3.6342,3.6371,3.6393,3.6443,3.6487,3.6532,3.6564,3.6567,3.6597,3.6584,3.6648,3.6596,3.6682,3.6633,3.6658,3.6667,3.6671,3.6674,3.6616,3.6702,3.6857,3.6872,3.668,3.6678,3.6676,0,3.6289,3.6373,3.6448,3.6468,3.6504,3.654,3.6557,3.6585,3.6615,3.6653,3.6672,3.6718,3.6742,3.6777,3.6776,3.6739,3.6861,3.681,3.6863,3.6863,3.6888,3.6886,3.7046,3.6909,3.6909,3.6909,3.6908,0,3.6421,3.6489,3.6492,3.6539,3.6613,3.6608,3.6681,3.6694,3.6719,3.6766,3.6747,3.6791,3.6788,3.6832,3.6832,3.69,3.6912,3.6915,3.6913,3.6915,3.6914,3.6929,3.692,3.6913,3.6912,3.6911,3.691,0,3.6544,3.655,3.6629,3.6657,3.6665,3.6718,3.6741,3.6784,3.679,3.6849,3.6863,3.6873,3.6924,3.6926,3.6985,3.6984,3.7067,3.7059,3.7056,3.7053,3.7104,3.7098,3.7278,3.7299,3.7151,3.7153,3.7154,0,3.6626,3.6677,3.671,3.6739,3.6758,3.6807,3.6836,3.6833,3.6864,3.6902,3.694,3.6988,3.7027,3.7108,3.712,3.7163,3.7154,3.7214,3.7161,3.7159,3.7151,3.7146,3.715,3.7224,3.7225,3.7227,3.7228,0,3.6771,3.677,3.6814,3.6857,3.6893,3.6927,3.6959,3.6984,3.6984,3.7019,3.707,3.71,3.7159,3.7206,3.7248,3.7263,3.7245,3.7245,3.7258,3.7259,3.7254,3.7253,3.7081,3.724,3.7239,3.7238,3.7237,3.7237,3.6873,3.6916,3.6944,3.6992,3.7016,3.7045,3.7085,3.7096,3.7139,3.7186,3.7181,3.7237,3.7264,3.7319,3.7337,3.738,3.7359,3.738,3.7385,3.7389,3.7393,3.7249,3.7388,3.7387,3.7387,3.7387,3.7387,0,3.7013,3.703,3.7074,3.7118,3.7155,3.7135,3.7168,3.72,3.7249,3.7277,3.7314,3.7371,3.7416,3.7431,3.7474,3.7504,3.7496,3.7515,3.7511,3.7514,3.7411,3.7393,3.7521,3.7521,3.7521,3.7521,3.752,3.752,3.7091,3.716,3.7163,3.7242,3.7258,3.7312,3.7333,3.7358,3.738,3.7444,3.7481,3.749,3.7512,3.7555,3.7595,3.7598,3.7613,3.7635,3.7634,3.7536,3.7522,3.7509,3.7492,3.7639,3.7639,3.7734,3.7734,3.7735]},{"header":{"parameterUnit":"m.s-1","parameterCategory":1,"la1":30.2991,"la2":30.254,"lo1":-89.0895,"lo2":-89.0444,"dy":0.0017,"dx":0.0017,"nx":28,"ny":28,"refTime":"2023-08-03T21:00:00:Z","depth":0,"parameterNumber":3,"parameterNumberName":"V-component_of_WINDS"},"data":[0,0,0,0,0,0,0,0,0,0,0,0,0,0,0,0,0,0,0,0,0,0,0,0,0,0,0,0,0,0,0,0,0,0,0,0,0,0,0,0,0,0,0,0,0,0,0,0,0,0,0,0,0,0,0,0,0,0,4.2797,4.2798,0,4.2903,4.2905,4.2906,4.2875,4.2872,4.287,4.2868,4.297,4.2975,4.2979,0,0,0,0,0,0,0,0,0,0,0,0,0,4.2559,4.2564,4.2797,4.2799,4.28,4.2903,4.2905,4.2906,4.2875,4.2872,4.287,4.2867,4.2968,4.2974,4.298,0,0,0,0,0,0,0,0,0,0,0,0,0,4.2664,4.2565,4.2797,4.2797,4.2798,4.2903,4.2905,4.2906,4.2876,4.2872,4.2869,4.2866,4.2967,4.2973,4.298,4.3089,0,0,4.3002,4.3005,0,0,0,0,0,0,0,0,4.2658,4.2672,4.2796,4.2797,4.2799,4.2873,4.2858,4.2968,4.2876,4.2846,4.2868,4.2864,4.294,4.2949,4.2976,4.3094,4.3099,4.3003,4.3007,4.301,4.3012,0,0,0,0,0,0,0,4.2651,4.2667,4.2839,4.2797,4.2799,4.2789,4.28,4.2879,4.291,4.2848,4.2846,4.286,4.294,4.2969,4.2978,4.31,4.3003,4.3009,4.3013,4.3016,4.331,4.3314,0,0,0,0,0,0,4.2643,4.2662,4.2836,4.2842,4.2719,4.2796,4.2808,4.2852,4.2909,4.2914,4.2862,4.2858,4.2958,4.297,4.2981,4.3111,4.301,4.3017,4.3021,4.3307,4.3311,4.3315,0,0,0,0,0,0,4.2638,4.2659,4.2831,4.2752,4.2773,4.2804,4.2853,4.2856,4.2885,4.2919,4.2924,4.2887,4.2956,4.2971,4.3063,4.3114,4.302,4.3026,4.3302,4.3308,4.3313,4.3372,0,0,0,0,0,0,4.2632,4.2658,4.2702,4.2753,4.2777,4.2914,4.2856,4.286,4.2898,4.2893,4.2944,4.2949,4.2955,4.3052,4.307,4.3122,4.3032,4.3298,4.3305,4.3311,4.3366,4.3379,4.339,0,0,0,0,0,4.2623,4.2713,4.2704,4.2725,4.2833,4.2917,4.293,4.2938,4.2903,4.2945,4.2967,4.2947,4.3106,4.3062,4.3081,4.3137,4.3295,4.3303,4.3311,4.336,4.3376,4.339,0,0,0,0,0,0,4.2665,4.272,4.271,4.282,4.2864,4.2912,4.2966,4.2955,4.3008,4.3001,4.3005,4.3017,4.311,4.3132,4.3082,4.3244,4.3195,4.3207,4.3226,4.3241,4.3253,4.3245,4.3038,0,0,0,0,0,4.2687,4.2753,4.2797,4.2889,4.2912,4.2935,4.2972,4.2974,4.3019,4.3036,4.3065,4.3107,4.3166,4.3205,4.3261,4.3369,4.3378,4.3416,4.3428,4.3438,4.3448,4.3504,4.3521,4.3341,4.3341,4.3341,0,0,4.2733,4.2771,4.2813,4.2898,4.2933,4.2998,4.2951,4.3023,4.307,4.3047,4.3135,4.3157,4.3204,4.3304,4.3349,4.3325,4.35,4.3449,4.3456,4.3461,4.3514,4.3531,4.3546,4.3347,4.3346,4.3345,0,0,4.285,4.2887,4.2967,4.3003,4.3056,4.3071,4.309,4.3139,4.3154,4.3243,4.3225,4.3281,4.3383,4.3417,4.3447,4.3576,4.3558,4.3593,4.3657,4.3711,4.3726,4.3738,4.3782,4.3798,4.3604,4.3604,4.3604,0,4.29,4.3001,4.3009,4.3083,4.3119,4.3103,4.3182,4.3215,4.3283,4.3308,4.3281,4.3408,4.3438,4.3544,4.3575,4.3601,4.3621,4.3588,4.3723,4.3736,4.3748,4.3789,4.3806,4.3608,4.3607,4.3607,4.3606,0,4.3058,4.3128,4.3186,4.3254,4.3298,4.3373,4.339,4.3432,4.343,4.3446,4.3535,4.3572,4.3634,4.3659,4.3657,4.3764,4.3748,4.3722,4.3673,4.3769,4.3808,4.3824,4.3613,4.3612,4.3611,4.361,0,0,4.3206,4.3277,4.3298,4.3328,4.3385,4.3437,4.3511,4.3574,4.3609,4.3656,4.3716,4.3802,4.3778,4.3813,4.3814,4.3862,4.3958,4.383,4.3831,4.3851,4.4076,4.4094,4.4113,4.3947,4.3951,4.3953,4.4071,0,4.3326,4.3459,4.3467,4.3586,4.3649,4.3633,4.3696,4.3736,4.3753,4.3807,4.3824,4.3885,4.385,4.387,4.3917,4.3937,4.4003,4.3928,4.4,4.4003,4.3988,4.4134,4.4154,4.4264,4.4087,4.409,4.4092,0,4.3486,4.3539,4.3665,4.3711,4.3738,4.3795,4.3852,4.3905,4.3948,4.3957,4.3995,4.3989,4.4061,4.401,4.4107,4.4056,4.4086,4.41,4.4104,4.411,4.4052,4.4142,4.4299,4.4315,4.4116,4.4114,4.4112,0,4.3578,4.3681,4.3769,4.3795,4.3852,4.3893,4.3917,4.3958,4.3995,4.4044,4.4067,4.4123,4.4154,4.4196,4.4204,4.4166,4.4301,4.4251,4.4307,4.4307,4.4336,4.4334,4.4499,4.4357,4.4357,4.4357,4.4356,0,4.3712,4.3789,4.3812,4.3866,4.395,4.3957,4.404,4.4062,4.4098,4.4153,4.4142,4.4194,4.4201,4.4254,4.426,4.4339,4.4353,4.436,4.436,4.436,4.4359,4.4379,4.4371,4.4361,4.436,4.4359,4.4358,0,4.3829,4.3848,4.3943,4.3989,4.4002,4.4062,4.41,4.415,4.4165,4.4235,4.4252,4.4275,4.4336,4.4349,4.4421,4.4424,4.4518,4.4511,4.4504,4.4502,4.4558,4.4552,4.474,4.4764,4.4609,4.461,4.4611,0,4.3913,4.3972,4.4024,4.4062,4.4089,4.415,4.4188,4.4196,4.4235,4.4289,4.4331,4.4392,4.4441,4.4539,4.456,4.4614,4.4608,4.467,4.4616,4.4613,4.4607,4.4603,4.4608,4.468,4.4682,4.4683,4.4684,0,4.4058,4.4065,4.4121,4.418,4.4226,4.4272,4.4316,4.4346,4.436,4.4404,4.4468,4.4506,4.458,4.4639,4.4693,4.4715,4.4701,4.4701,4.4717,4.4717,4.471,4.4713,4.453,4.4697,4.4696,4.4695,4.4694,4.4694,4.416,4.4211,4.4256,4.4318,4.4353,4.4394,4.4443,4.4464,4.4518,4.4581,4.4581,4.465,4.4689,4.4761,4.4787,4.4839,4.4818,4.4842,4.4847,4.4853,4.4857,4.4703,4.4848,4.4848,4.4848,4.4847,4.4847,0,4.4304,4.4332,4.4389,4.4452,4.45,4.4485,4.4532,4.4573,4.4634,4.4674,4.4722,4.4793,4.485,4.4876,4.4932,4.4968,4.4963,4.4982,4.4978,4.4983,4.4873,4.4853,4.4985,4.4985,4.4985,4.4985,4.4985,4.4985,4.4384,4.4469,4.448,4.4581,4.4607,4.4677,4.4704,4.4741,4.4772,4.4853,4.4901,4.4919,4.4951,4.5009,4.5059,4.5065,4.5085,4.5107,4.511,4.5005,4.4991,4.4978,4.4959,4.5112,4.5112,4.5216,4.5217,4.5217]}]]